Time,TemperatureF,DewpointF,PressureIn,WindDirection,WindDirectionDegrees,WindSpeedMPH,WindSpeedGustMPH,Humidity,HourlyPrecipIn,Conditions,Clouds,dailyrainin,SoftwareType,DateUTC
2013-03-15 00:00:00,49.5,32.1,-100.00,WSW,242,2.7,2.7,51,0.00,,,0.00,VWS V14.01,2013-03-15 07:00:00,
2013-03-15 00:05:00,49.1,32.2,-100.00,SW,236,2.7,2.7,52,0.00,,,0.00,VWS V14.01,2013-03-15 07:05:00,
2013-03-15 00:10:00,48.7,32.8,-100.00,SSW,212,2.7,2.7,54,0.00,,,0.00,VWS V14.01,2013-03-15 07:10:00,
2013-03-15 00:15:00,48.6,33.6,-100.00,WSW,241,5.8,5.8,56,0.00,,,0.00,VWS V14.01,2013-03-15 07:15:00,
2013-03-15 00:20:00,48.6,34.5,-100.00,SW,234,3.6,3.6,58,0.00,,,0.00,VWS V14.01,2013-03-15 07:20:00,
2013-03-15 00:25:00,48.7,35.1,-100.00,WSW,254,4.0,4.0,59,0.00,,,0.00,VWS V14.01,2013-03-15 07:25:00,
2013-03-15 00:30:00,49.1,35.0,-100.00,WNW,292,5.4,5.4,58,0.00,,,0.00,VWS V14.01,2013-03-15 07:30:00,
2013-03-15 00:35:00,49.1,35.0,-100.00,West,264,2.7,4.9,58,0.00,,,0.00,VWS V14.01,2013-03-15 07:35:00,
2013-03-15 00:40:00,49.3,35.1,-100.00,WSW,251,3.6,3.6,58,0.00,,,0.00,VWS V14.01,2013-03-15 07:40:00,
2013-03-15 00:45:00,49.3,35.1,-100.00,SW,229,2.7,2.7,58,0.00,,,0.00,VWS V14.01,2013-03-15 07:45:00,
2013-03-15 00:50:00,49.3,35.6,-100.00,West,265,2.7,3.6,59,0.00,,,0.00,VWS V14.01,2013-03-15 07:50:00,
2013-03-15 00:55:00,49.3,35.1,-100.00,WSW,239,0.0,2.2,58,0.00,,,0.00,VWS V14.01,2013-03-15 07:55:00,
2013-03-15 01:00:00,49.1,35.4,-100.00,West,264,3.1,4.9,59,0.00,,,0.00,VWS V14.01,2013-03-15 08:00:00,
2013-03-15 01:05:00,48.9,35.2,-100.00,WSW,257,3.6,3.6,59,0.00,,,0.00,VWS V14.01,2013-03-15 08:05:00,
2013-03-15 01:10:00,48.7,35.5,-100.00,SW,221,0.0,2.7,60,0.00,,,0.00,VWS V14.01,2013-03-15 08:10:00,
2013-03-15 01:15:00,48.7,35.9,-100.00,WSW,250,0.0,0.0,61,0.00,,,0.00,VWS V14.01,2013-03-15 08:15:00,
2013-03-15 01:20:00,48.6,36.2,-100.00,SW,222,3.1,3.1,62,0.00,,,0.00,VWS V14.01,2013-03-15 08:20:00,
2013-03-15 01:25:00,48.4,36.4,-100.00,SW,223,2.7,3.1,63,0.00,,,0.00,VWS V14.01,2013-03-15 08:25:00,
2013-03-15 01:30:00,48.2,36.2,-100.00,West,274,3.6,4.0,63,0.00,,,0.00,VWS V14.01,2013-03-15 08:30:00,
2013-03-15 01:35:00,48.0,36.4,-100.00,West,259,2.7,2.7,64,0.00,,,0.00,VWS V14.01,2013-03-15 08:35:00,
2013-03-15 01:40:00,48.0,36.4,-100.00,West,259,0.0,0.0,64,0.00,,,0.00,VWS V14.01,2013-03-15 08:40:00,
2013-03-15 01:45:00,48.0,36.8,-100.00,West,277,0.0,0.0,65,0.00,,,0.00,VWS V14.01,2013-03-15 08:45:00,
2013-03-15 01:50:00,47.8,36.7,-100.00,WSW,241,0.0,4.0,65,0.00,,,0.00,VWS V14.01,2013-03-15 08:50:00,
2013-03-15 01:55:00,47.8,36.7,-100.00,WNW,291,3.6,5.4,65,0.00,,,0.00,VWS V14.01,2013-03-15 08:55:00,
2013-03-15 02:00:00,48.0,36.4,-100.00,WSW,254,0.0,3.6,64,0.00,,,0.00,VWS V14.01,2013-03-15 09:00:00,
2013-03-15 02:05:00,48.0,36.4,-100.00,WSW,248,0.0,3.1,64,0.00,,,0.00,VWS V14.01,2013-03-15 09:05:00,
2013-03-15 02:10:00,47.8,36.7,-100.00,WNW,301,2.7,2.7,65,0.00,,,0.00,VWS V14.01,2013-03-15 09:10:00,
2013-03-15 02:15:00,47.8,36.7,-100.00,WNW,282,0.0,4.0,65,0.00,,,0.00,VWS V14.01,2013-03-15 09:15:00,
2013-03-15 02:20:00,47.7,36.5,-100.00,West,261,3.6,3.6,65,0.00,,,0.00,VWS V14.01,2013-03-15 09:20:00,
2013-03-15 02:25:00,47.5,36.3,-100.00,SW,218,0.0,0.0,65,0.00,,,0.00,VWS V14.01,2013-03-15 09:25:00,
2013-03-15 02:30:00,47.1,36.4,-100.00,WSW,238,0.0,0.0,66,0.00,,,0.00,VWS V14.01,2013-03-15 09:30:00,
2013-03-15 02:35:00,46.8,36.4,-100.00,WSW,249,0.0,0.0,67,0.00,,,0.00,VWS V14.01,2013-03-15 09:35:00,
2013-03-15 02:40:00,46.6,36.6,-100.00,WSW,245,0.0,0.0,68,0.00,,,0.00,VWS V14.01,2013-03-15 09:40:00,
2013-03-15 02:45:00,46.4,36.8,-100.00,WNW,291,0.0,0.0,69,0.00,,,0.00,VWS V14.01,2013-03-15 09:45:00,
2013-03-15 02:50:00,46.4,37.2,-100.00,SSW,203,0.0,0.0,70,0.00,,,0.00,VWS V14.01,2013-03-15 09:50:00,
2013-03-15 02:55:00,46.8,37.1,-100.00,SW,223,3.6,3.6,69,0.00,,,0.00,VWS V14.01,2013-03-15 09:55:00,
2013-03-15 03:00:00,47.1,37.1,-100.00,West,273,0.0,0.0,68,0.00,,,0.00,VWS V14.01,2013-03-15 10:00:00,
2013-03-15 03:05:00,47.1,37.1,-100.00,WSW,251,0.0,0.0,68,0.00,,,0.00,VWS V14.01,2013-03-15 10:05:00,
2013-03-15 03:10:00,47.1,37.1,-100.00,NW,319,0.0,0.0,68,0.00,,,0.00,VWS V14.01,2013-03-15 10:10:00,
2013-03-15 03:15:00,47.1,36.7,-100.00,SW,218,3.1,3.1,67,0.00,,,0.00,VWS V14.01,2013-03-15 10:15:00,
2013-03-15 03:20:00,46.9,36.6,-100.00,WSW,243,0.0,0.0,67,0.00,,,0.00,VWS V14.01,2013-03-15 10:20:00,
2013-03-15 03:25:00,46.6,36.6,-100.00,North,0,0.0,0.0,68,0.00,,,0.00,VWS V14.01,2013-03-15 10:25:00,
2013-03-15 03:30:00,46.0,36.8,-100.00,North,0,0.0,0.0,70,0.00,,,0.00,VWS V14.01,2013-03-15 10:30:00,
2013-03-15 03:35:00,45.7,36.5,-100.00,North,0,0.0,0.0,70,0.00,,,0.00,VWS V14.01,2013-03-15 10:35:00,
2013-03-15 03:40:00,45.3,36.8,-100.00,SE,129,0.0,0.0,72,0.00,,,0.00,VWS V14.01,2013-03-15 10:40:00,
2013-03-15 03:45:00,44.8,36.3,-100.00,SE,126,0.0,0.0,72,0.00,,,0.00,VWS V14.01,2013-03-15 10:45:00,
2013-03-15 03:50:00,44.4,36.7,-100.00,East,97,0.0,0.0,74,0.00,,,0.00,VWS V14.01,2013-03-15 10:50:00,
2013-03-15 03:55:00,43.9,36.5,-100.00,East,96,0.0,0.0,75,0.00,,,0.00,VWS V14.01,2013-03-15 10:55:00,
2013-03-15 03:59:00,43.5,36.5,-100.00,NNE,22,0.0,0.0,76,0.00,,,0.00,VWS V14.01,2013-03-15 10:59:00,
2013-03-15 04:04:00,43.3,36.0,-100.00,NNE,22,0.0,0.0,75,0.00,,,0.00,VWS V14.01,2013-03-15 11:04:00,
2013-03-15 04:09:00,43.0,36.3,-100.00,NNE,22,0.0,0.0,77,0.00,,,0.00,VWS V14.01,2013-03-15 11:09:00,
2013-03-15 04:14:00,42.8,35.8,-100.00,NNE,22,0.0,0.0,76,0.00,,,0.00,VWS V14.01,2013-03-15 11:14:00,
2013-03-15 04:19:00,42.1,35.1,-100.00,NNE,22,0.0,0.0,76,0.00,,,0.00,VWS V14.01,2013-03-15 11:19:00,
2013-03-15 04:24:00,41.7,34.7,-100.00,NNE,22,0.0,0.0,76,0.00,,,0.00,VWS V14.01,2013-03-15 11:24:00,
2013-03-15 04:29:00,41.2,34.5,-100.00,NNE,31,0.0,0.0,77,0.00,,,0.00,VWS V14.01,2013-03-15 11:29:00,
2013-03-15 04:34:00,41.0,35.3,-100.00,NNE,31,0.0,0.0,80,0.00,,,0.00,VWS V14.01,2013-03-15 11:34:00,
2013-03-15 04:39:00,40.8,35.5,-100.00,WNW,282,0.0,0.0,81,0.00,,,0.00,VWS V14.01,2013-03-15 11:39:00,
2013-03-15 04:45:00,40.6,35.6,-100.00,West,275,0.0,0.0,82,0.00,,,0.00,VWS V14.01,2013-03-15 11:45:00,
2013-03-15 04:50:00,40.8,36.1,-100.00,West,275,0.0,0.0,83,0.00,,,0.00,VWS V14.01,2013-03-15 11:50:00,
2013-03-15 04:55:00,40.8,36.1,-100.00,West,275,0.0,0.0,83,0.00,,,0.00,VWS V14.01,2013-03-15 11:55:00,
2013-03-15 05:00:00,40.6,35.3,-100.00,West,275,0.0,0.0,81,0.00,,,0.00,VWS V14.01,2013-03-15 12:00:00,
2013-03-15 05:05:00,40.5,35.4,-100.00,West,275,0.0,0.0,82,0.00,,,0.00,VWS V14.01,2013-03-15 12:05:00,
2013-03-15 05:10:00,40.6,35.9,-100.00,West,276,0.0,0.0,83,0.00,,,0.00,VWS V14.01,2013-03-15 12:10:00,
2013-03-15 05:15:00,40.8,35.8,-100.00,West,276,0.0,0.0,82,0.00,,,0.00,VWS V14.01,2013-03-15 12:15:00,
2013-03-15 05:20:00,41.0,35.6,-100.00,ENE,61,0.0,0.0,81,0.00,,,0.00,VWS V14.01,2013-03-15 12:20:00,
2013-03-15 05:25:00,41.0,34.0,-100.00,NE,41,0.0,0.0,76,0.00,,,0.00,VWS V14.01,2013-03-15 12:25:00,
2013-03-15 05:30:00,40.6,33.3,-100.00,NE,41,0.0,0.0,75,0.00,,,0.00,VWS V14.01,2013-03-15 12:30:00,
2013-03-15 05:35:00,40.5,32.5,-100.00,NE,41,0.0,0.0,73,0.00,,,0.00,VWS V14.01,2013-03-15 12:35:00,
2013-03-15 05:40:00,40.1,31.5,-100.00,NE,41,0.0,0.0,71,0.00,,,0.00,VWS V14.01,2013-03-15 12:40:00,
2013-03-15 05:45:00,39.7,31.1,-100.00,NNE,33,0.0,0.0,71,0.00,,,0.00,VWS V14.01,2013-03-15 12:45:00,
2013-03-15 05:50:00,39.4,30.8,-100.00,NNE,33,0.0,0.0,71,0.00,,,0.00,VWS V14.01,2013-03-15 12:50:00,
2013-03-15 05:55:00,39.2,30.6,-100.00,East,100,0.0,0.0,71,0.00,,,0.00,VWS V14.01,2013-03-15 12:55:00,
2013-03-15 06:00:00,39.4,31.1,-100.00,SE,132,0.0,0.0,72,0.00,,,0.00,VWS V14.01,2013-03-15 13:00:00,
2013-03-15 06:05:00,39.4,31.1,-100.00,SE,130,0.0,0.0,72,0.00,,,0.00,VWS V14.01,2013-03-15 13:05:00,
2013-03-15 06:10:00,39.4,31.1,-100.00,SE,130,0.0,0.0,72,0.00,,,0.00,VWS V14.01,2013-03-15 13:10:00,
2013-03-15 06:15:00,39.4,31.1,-100.00,SSE,157,0.0,0.0,72,0.00,,,0.00,VWS V14.01,2013-03-15 13:15:00,
2013-03-15 06:20:00,39.4,31.1,-100.00,South,181,0.0,0.0,72,0.00,,,0.00,VWS V14.01,2013-03-15 13:20:00,
2013-03-15 06:25:00,39.4,31.1,-100.00,SSE,165,0.0,0.0,72,0.00,,,0.00,VWS V14.01,2013-03-15 13:25:00,
2013-03-15 06:30:00,39.4,31.1,-100.00,SSE,165,0.0,0.0,72,0.00,,,0.00,VWS V14.01,2013-03-15 13:30:00,
2013-03-15 06:35:00,39.2,31.0,-100.00,SSE,165,0.0,0.0,72,0.00,,,0.00,VWS V14.01,2013-03-15 13:35:00,
2013-03-15 06:40:00,39.0,30.8,-100.00,SSE,165,0.0,0.0,72,0.00,,,0.00,VWS V14.01,2013-03-15 13:40:00,
2013-03-15 06:45:00,38.8,31.3,-100.00,SSE,163,0.0,0.0,74,0.00,,,0.00,VWS V14.01,2013-03-15 13:45:00,
2013-03-15 06:50:00,39.0,31.8,-100.00,SSE,163,0.0,0.0,75,0.00,,,0.00,VWS V14.01,2013-03-15 13:50:00,
2013-03-15 06:55:00,39.2,32.0,-100.00,WSW,248,0.0,0.0,75,0.00,,,0.00,VWS V14.01,2013-03-15 13:55:00,
2013-03-15 07:00:00,39.2,32.0,-100.00,WSW,248,0.0,0.0,75,0.00,,,0.00,VWS V14.01,2013-03-15 14:00:00,
2013-03-15 07:05:00,39.2,32.0,-100.00,WSW,248,0.0,0.0,75,0.00,,,0.00,VWS V14.01,2013-03-15 14:05:00,
2013-03-15 07:10:00,39.0,32.1,-100.00,WSW,248,0.0,0.0,76,0.00,,,0.00,VWS V14.01,2013-03-15 14:10:00,
2013-03-15 07:15:00,38.8,31.9,-100.00,WSW,248,0.0,0.0,76,0.00,,,0.00,VWS V14.01,2013-03-15 14:15:00,
2013-03-15 07:20:00,38.7,31.8,-100.00,WSW,248,0.0,0.0,76,0.00,,,0.00,VWS V14.01,2013-03-15 14:20:00,
2013-03-15 07:25:00,38.5,31.3,-100.00,SSW,192,0.0,0.0,75,0.00,,,0.00,VWS V14.01,2013-03-15 14:25:00,
2013-03-15 07:30:00,38.7,31.1,-100.00,SSE,158,0.0,0.0,74,0.00,,,0.00,VWS V14.01,2013-03-15 14:30:00,
2013-03-15 07:35:00,38.5,30.9,-100.00,WSW,238,0.0,0.0,74,0.00,,,0.00,VWS V14.01,2013-03-15 14:35:00,
2013-03-15 07:40:00,38.5,30.9,-100.00,SSW,193,0.0,0.0,74,0.00,,,0.00,VWS V14.01,2013-03-15 14:40:00,
2013-03-15 07:45:00,38.7,31.4,-100.00,SW,222,0.0,0.0,75,0.00,,,0.00,VWS V14.01,2013-03-15 14:45:00,
2013-03-15 07:50:00,38.8,31.6,-100.00,South,185,0.0,0.0,75,0.00,,,0.00,VWS V14.01,2013-03-15 14:50:00,
2013-03-15 07:55:00,39.4,31.5,-100.00,SW,235,0.0,0.0,73,0.00,,,0.00,VWS V14.01,2013-03-15 14:55:00,
2013-03-15 08:00:00,39.7,31.5,-100.00,SSW,206,2.2,2.2,72,0.00,,,0.00,VWS V14.01,2013-03-15 15:00:00,
2013-03-15 08:05:00,39.9,31.3,-100.00,SSE,159,0.0,0.0,71,0.00,,,0.00,VWS V14.01,2013-03-15 15:05:00,
2013-03-15 08:10:00,40.3,31.3,-100.00,SSE,168,0.0,0.0,70,0.00,,,0.00,VWS V14.01,2013-03-15 15:10:00,
2013-03-15 08:15:00,40.1,30.4,-100.00,SSE,168,0.0,0.0,68,0.00,,,0.00,VWS V14.01,2013-03-15 15:15:00,
2013-03-15 08:20:00,40.1,30.0,-100.00,SSE,161,0.0,0.0,67,0.00,,,0.00,VWS V14.01,2013-03-15 15:20:00,
2013-03-15 08:25:00,40.1,29.7,-100.00,SSE,162,0.0,0.0,66,0.00,,,0.00,VWS V14.01,2013-03-15 15:25:00,
2013-03-15 08:30:00,40.1,29.7,-100.00,SSE,162,0.0,0.0,66,0.00,,,0.00,VWS V14.01,2013-03-15 15:30:00,
2013-03-15 08:35:00,40.1,30.0,-100.00,SSE,162,0.0,0.0,67,0.00,,,0.00,VWS V14.01,2013-03-15 15:35:00,
2013-03-15 08:40:00,40.3,30.2,-100.00,SSE,166,0.0,0.0,67,0.00,,,0.00,VWS V14.01,2013-03-15 15:40:00,
2013-03-15 08:45:00,40.5,30.4,-100.00,SE,132,0.0,0.0,67,0.00,,,0.00,VWS V14.01,2013-03-15 15:45:00,
2013-03-15 08:50:00,40.6,30.5,-100.00,SE,145,0.0,0.0,67,0.00,,,0.00,VWS V14.01,2013-03-15 15:50:00,
2013-03-15 08:55:00,41.0,30.9,-100.00,SE,146,0.0,0.0,67,0.00,,,0.00,VWS V14.01,2013-03-15 15:55:00,
2013-03-15 09:00:00,41.4,31.2,-100.00,SSE,159,3.1,3.1,67,0.00,,,0.00,VWS V14.01,2013-03-15 16:00:00,
2013-03-15 09:05:00,42.1,31.9,-100.00,SSW,202,0.0,0.0,67,0.00,,,0.00,VWS V14.01,2013-03-15 16:05:00,
2013-03-15 09:10:00,42.6,32.4,-100.00,South,179,0.0,0.0,67,0.00,,,0.00,VWS V14.01,2013-03-15 16:10:00,
2013-03-15 09:15:00,43.3,32.8,-100.00,SSW,205,3.6,3.6,66,0.00,,,0.00,VWS V14.01,2013-03-15 16:15:00,
2013-03-15 09:20:00,43.7,32.3,-100.00,South,191,0.0,0.0,64,0.00,,,0.00,VWS V14.01,2013-03-15 16:20:00,
2013-03-15 09:24:00,43.9,30.9,-100.00,South,191,0.0,0.0,60,0.00,,,0.00,VWS V14.01,2013-03-15 16:24:00,
2013-03-15 09:29:00,44.1,31.9,-100.00,South,191,0.0,0.0,62,0.00,,,0.00,VWS V14.01,2013-03-15 16:29:00,
2013-03-15 09:35:00,44.6,32.0,-100.00,SSE,149,3.1,3.6,61,0.00,,,0.00,VWS V14.01,2013-03-15 16:35:00,
2013-03-15 09:39:00,45.0,32.3,-100.00,South,179,0.0,0.0,61,0.00,,,0.00,VWS V14.01,2013-03-15 16:39:00,
2013-03-15 09:44:00,45.3,32.7,-100.00,WSW,240,0.0,0.0,61,0.00,,,0.00,VWS V14.01,2013-03-15 16:44:00,
2013-03-15 09:49:00,45.7,32.6,-100.00,South,181,0.0,0.0,60,0.00,,,0.00,VWS V14.01,2013-03-15 16:49:00,
2013-03-15 09:54:00,46.0,32.5,-100.00,SSW,195,0.0,0.0,59,0.00,,,0.00,VWS V14.01,2013-03-15 16:54:00,
2013-03-15 09:59:00,46.4,32.0,-100.00,SSE,159,2.2,4.0,57,0.00,,,0.00,VWS V14.01,2013-03-15 16:59:00,
2013-03-15 10:04:00,46.9,32.1,-100.00,South,177,0.0,0.0,56,0.00,,,0.00,VWS V14.01,2013-03-15 17:04:00,
2013-03-15 10:09:00,47.5,32.1,-100.00,SE,134,3.1,3.1,55,0.00,,,0.00,VWS V14.01,2013-03-15 17:09:00,
2013-03-15 10:14:00,48.2,31.9,-100.00,SSE,151,3.1,3.1,53,0.00,,,0.00,VWS V14.01,2013-03-15 17:14:00,
2013-03-15 10:19:00,48.7,32.4,-100.00,SSW,198,0.0,3.1,53,0.00,,,0.00,VWS V14.01,2013-03-15 17:19:00,
2013-03-15 10:24:00,49.1,31.8,-100.00,SSE,155,0.0,0.0,51,0.00,,,0.00,VWS V14.01,2013-03-15 17:24:00,
2013-03-15 10:29:00,49.6,32.8,-100.00,East,96,0.0,0.0,52,0.00,,,0.00,VWS V14.01,2013-03-15 17:29:00,
2013-03-15 10:34:00,50.0,32.1,-100.00,SW,223,0.0,0.0,50,0.00,,,0.00,VWS V14.01,2013-03-15 17:34:00,
2013-03-15 10:39:00,50.4,32.4,-100.00,WSW,238,0.0,0.0,50,0.00,,,0.00,VWS V14.01,2013-03-15 17:39:00,
2013-03-15 10:44:00,50.9,32.9,-100.00,WSW,250,3.1,3.6,50,0.00,,,0.00,VWS V14.01,2013-03-15 17:44:00,
2013-03-15 10:49:00,51.4,33.4,-100.00,South,183,0.0,0.0,50,0.00,,,0.00,VWS V14.01,2013-03-15 17:49:00,
2013-03-15 10:54:00,51.8,32.8,-100.00,SW,232,0.0,0.0,48,0.00,,,0.00,VWS V14.01,2013-03-15 17:54:00,
2013-03-15 10:59:00,52.0,32.9,-100.00,South,169,0.0,0.0,48,0.00,,,0.00,VWS V14.01,2013-03-15 17:59:00,
2013-03-15 11:04:00,52.3,33.2,-100.00,NW,325,2.7,3.6,48,0.00,,,0.00,VWS V14.01,2013-03-15 18:04:00,
2013-03-15 11:09:00,52.7,32.0,-100.00,ESE,121,0.0,0.0,45,0.00,,,0.00,VWS V14.01,2013-03-15 18:09:00,
2013-03-15 11:14:00,52.9,32.1,-100.00,WNW,286,2.7,4.0,45,0.00,,,0.00,VWS V14.01,2013-03-15 18:14:00,
2013-03-15 11:19:00,53.8,32.4,-100.00,SSE,168,0.0,0.0,44,0.00,,,0.00,VWS V14.01,2013-03-15 18:19:00,
2013-03-15 11:24:00,54.3,31.1,-100.00,WNW,299,0.0,3.1,41,0.00,,,0.00,VWS V14.01,2013-03-15 18:24:00,
2013-03-15 11:29:00,54.3,32.3,-100.00,SSW,193,0.0,0.0,43,0.00,,,0.00,VWS V14.01,2013-03-15 18:29:00,
2013-03-15 11:34:00,54.7,31.5,-100.00,WSW,239,0.0,0.0,41,0.00,,,0.00,VWS V14.01,2013-03-15 18:34:00,
2013-03-15 11:39:00,54.5,31.9,-100.00,West,265,0.0,0.0,42,0.00,,,0.00,VWS V14.01,2013-03-15 18:39:00,
2013-03-15 11:44:00,54.5,31.9,-100.00,South,181,0.0,0.0,42,0.00,,,0.00,VWS V14.01,2013-03-15 18:44:00,
2013-03-15 11:49:00,55.4,32.7,-100.00,SE,137,0.0,3.6,42,0.00,,,0.00,VWS V14.01,2013-03-15 18:49:00,
2013-03-15 11:54:00,56.3,32.3,-100.00,SSE,162,0.0,2.2,40,0.00,,,0.00,VWS V14.01,2013-03-15 18:54:00,
2013-03-15 11:59:00,56.5,32.5,-100.00,South,183,5.8,5.8,40,0.00,,,0.00,VWS V14.01,2013-03-15 18:59:00,
2013-03-15 12:04:00,57.0,33.0,-100.00,SSE,148,4.0,5.4,40,0.00,,,0.00,VWS V14.01,2013-03-15 19:04:00,
2013-03-15 12:09:00,57.7,32.3,-100.00,South,182,0.0,4.0,38,0.00,,,0.00,VWS V14.01,2013-03-15 19:09:00,
2013-03-15 12:14:00,57.9,32.5,-100.00,SW,224,3.6,3.6,38,0.00,,,0.00,VWS V14.01,2013-03-15 19:14:00,
2013-03-15 12:19:00,57.9,32.5,-100.00,SW,234,6.3,6.3,38,0.00,,,0.00,VWS V14.01,2013-03-15 19:19:00,
2013-03-15 12:24:00,58.1,32.7,-100.00,SSE,168,3.1,5.4,38,0.00,,,0.00,VWS V14.01,2013-03-15 19:24:00,
2013-03-15 12:29:00,58.1,32.0,-100.00,ENE,65,2.7,2.7,37,0.00,,,0.00,VWS V14.01,2013-03-15 19:29:00,
2013-03-15 12:34:00,57.9,32.5,-100.00,SSE,151,4.0,4.9,38,0.00,,,0.00,VWS V14.01,2013-03-15 19:34:00,
2013-03-15 12:39:00,57.9,31.8,-100.00,ENE,68,0.0,0.0,37,0.00,,,0.00,VWS V14.01,2013-03-15 19:39:00,
2013-03-15 12:44:00,57.7,31.7,-100.00,ENE,67,3.1,3.1,37,0.00,,,0.00,VWS V14.01,2013-03-15 19:44:00,
2013-03-15 12:49:00,58.1,32.7,-100.00,WSW,243,3.6,3.6,38,0.00,,,0.00,VWS V14.01,2013-03-15 19:49:00,
2013-03-15 12:54:00,58.8,32.0,-100.00,NW,314,0.0,2.7,36,0.00,,,0.00,VWS V14.01,2013-03-15 19:54:00,
2013-03-15 12:59:00,59.2,32.3,-100.00,WNW,297,3.1,3.1,36,0.00,,,0.00,VWS V14.01,2013-03-15 19:59:00,
2013-03-15 13:04:00,59.2,32.3,-100.00,ENE,78,0.0,0.0,36,0.00,,,0.00,VWS V14.01,2013-03-15 20:04:00,
2013-03-15 13:09:00,59.2,31.6,-100.00,WNW,288,4.0,4.0,35,0.00,,,0.00,VWS V14.01,2013-03-15 20:09:00,
2013-03-15 13:14:00,59.4,32.4,-100.00,South,186,2.7,4.0,36,0.00,,,0.00,VWS V14.01,2013-03-15 20:14:00,
2013-03-15 13:19:00,59.7,32.0,-100.00,WSW,238,0.0,0.0,35,0.00,,,0.00,VWS V14.01,2013-03-15 20:19:00,
2013-03-15 13:24:00,59.7,32.0,-100.00,SW,232,0.0,0.0,35,0.00,,,0.00,VWS V14.01,2013-03-15 20:24:00,
2013-03-15 13:29:00,59.9,32.9,-100.00,WSW,245,2.7,4.9,36,0.00,,,0.00,VWS V14.01,2013-03-15 20:29:00,
2013-03-15 13:34:00,60.4,32.7,-100.00,WSW,256,2.7,3.6,35,0.00,,,0.00,VWS V14.01,2013-03-15 20:34:00,
2013-03-15 13:39:00,60.8,32.3,-100.00,NW,305,3.6,3.6,34,0.00,,,0.00,VWS V14.01,2013-03-15 20:39:00,
2013-03-15 13:44:00,61.0,32.4,-100.00,SSW,208,3.6,4.0,34,0.00,,,0.00,VWS V14.01,2013-03-15 20:44:00,
2013-03-15 13:49:00,61.3,32.8,-100.00,WSW,241,5.4,5.4,34,0.00,,,0.00,VWS V14.01,2013-03-15 20:49:00,
2013-03-15 13:54:00,61.0,31.7,-100.00,NE,51,0.0,0.0,33,0.00,,,0.00,VWS V14.01,2013-03-15 20:54:00,
2013-03-15 13:59:00,61.0,32.4,-100.00,SW,219,4.0,6.3,34,0.00,,,0.00,VWS V14.01,2013-03-15 20:59:00,
2013-03-15 14:04:00,61.3,31.2,-100.00,WNW,297,2.7,2.7,32,0.00,,,0.00,VWS V14.01,2013-03-15 21:04:00,
2013-03-15 14:09:00,61.0,30.2,-100.00,SSE,152,0.0,3.6,31,0.00,,,0.00,VWS V14.01,2013-03-15 21:09:00,
2013-03-15 14:14:00,60.8,29.2,-100.00,NW,308,3.1,4.9,30,0.00,,,0.00,VWS V14.01,2013-03-15 21:14:00,
2013-03-15 14:19:00,61.0,28.5,-100.00,WSW,249,4.9,5.4,29,0.00,,,0.00,VWS V14.01,2013-03-15 21:19:00,
2013-03-15 14:24:00,61.2,28.7,-100.00,West,270,7.6,7.6,29,0.00,,,0.00,VWS V14.01,2013-03-15 21:24:00,
2013-03-15 14:29:00,61.9,29.3,-100.00,West,271,5.4,6.7,29,0.00,,,0.00,VWS V14.01,2013-03-15 21:29:00,
2013-03-15 14:34:00,62.2,28.8,-100.00,WNW,288,3.6,3.6,28,0.00,,,0.00,VWS V14.01,2013-03-15 21:34:00,
2013-03-15 14:39:00,62.1,28.6,-100.00,West,262,5.8,6.3,28,0.00,,,0.00,VWS V14.01,2013-03-15 21:39:00,
2013-03-15 14:44:00,62.2,27.9,-100.00,West,275,4.0,4.0,27,0.00,,,0.00,VWS V14.01,2013-03-15 21:44:00,
2013-03-15 14:49:00,61.9,27.6,-100.00,NW,305,5.8,5.8,27,0.00,,,0.00,VWS V14.01,2013-03-15 21:49:00,
2013-03-15 14:54:00,61.2,26.0,-100.00,West,260,3.1,3.6,26,0.00,,,0.00,VWS V14.01,2013-03-15 21:54:00,
2013-03-15 14:59:00,60.8,25.7,-100.00,WSW,250,3.6,5.8,26,0.00,,,0.00,VWS V14.01,2013-03-15 21:59:00,
2013-03-15 15:04:00,60.8,25.7,-100.00,NW,307,2.7,4.0,26,0.00,,,0.00,VWS V14.01,2013-03-15 22:04:00,
2013-03-15 15:09:00,60.8,25.7,-100.00,NW,306,5.4,7.6,26,0.00,,,0.00,VWS V14.01,2013-03-15 22:09:00,
2013-03-15 15:14:00,61.0,25.9,-100.00,SW,234,2.7,4.0,26,0.00,,,0.00,VWS V14.01,2013-03-15 22:14:00,
2013-03-15 15:19:00,61.3,26.2,-100.00,SW,231,6.3,6.3,26,0.00,,,0.00,VWS V14.01,2013-03-15 22:19:00,
2013-03-15 15:24:00,61.2,26.0,-100.00,NNW,334,4.5,5.8,26,0.00,,,0.00,VWS V14.01,2013-03-15 22:24:00,
2013-03-15 15:29:00,60.8,25.7,-100.00,West,265,2.7,4.0,26,0.00,,,0.00,VWS V14.01,2013-03-15 22:29:00,
2013-03-15 15:34:00,60.6,25.6,-100.00,SW,218,4.0,4.9,26,0.00,,,0.00,VWS V14.01,2013-03-15 22:34:00,
2013-03-15 15:39:00,60.4,25.4,-100.00,WSW,246,0.0,2.2,26,0.00,,,0.00,VWS V14.01,2013-03-15 22:39:00,
2013-03-15 15:44:00,60.4,25.4,-100.00,SW,224,3.6,4.0,26,0.00,,,0.00,VWS V14.01,2013-03-15 22:44:00,
2013-03-15 15:49:00,60.4,26.3,-100.00,North,350,3.6,5.8,27,0.00,,,0.00,VWS V14.01,2013-03-15 22:49:00,
2013-03-15 15:54:00,60.4,26.3,-100.00,West,259,5.4,5.4,27,0.00,,,0.00,VWS V14.01,2013-03-15 22:54:00,
2013-03-15 15:59:00,60.6,27.4,-100.00,SW,231,4.0,4.0,28,0.00,,,0.00,VWS V14.01,2013-03-15 22:59:00,
2013-03-15 16:04:00,60.4,27.2,-100.00,West,275,3.6,3.6,28,0.00,,,0.00,VWS V14.01,2013-03-15 23:04:00,
2013-03-15 16:09:00,60.4,27.2,-100.00,WNW,290,2.2,4.0,28,0.00,,,0.00,VWS V14.01,2013-03-15 23:09:00,
2013-03-15 16:14:00,59.9,27.6,-100.00,WNW,289,3.6,3.6,29,0.00,,,0.00,VWS V14.01,2013-03-15 23:14:00,
2013-03-15 16:19:00,59.7,27.4,-100.00,West,276,4.0,6.3,29,0.00,,,0.00,VWS V14.01,2013-03-15 23:19:00,
2013-03-15 16:24:00,59.5,28.1,-100.00,WNW,286,0.0,3.6,30,0.00,,,0.00,VWS V14.01,2013-03-15 23:24:00,
2013-03-15 16:29:00,59.4,27.9,-100.00,WNW,284,4.0,5.8,30,0.00,,,0.00,VWS V14.01,2013-03-15 23:29:00,
2013-03-15 16:34:00,59.0,27.6,-100.00,NE,39,4.9,8.1,30,0.00,,,0.00,VWS V14.01,2013-03-15 23:34:00,
2013-03-15 16:39:00,58.6,28.1,-100.00,West,278,3.1,3.6,31,0.00,,,0.00,VWS V14.01,2013-03-15 23:39:00,
2013-03-15 16:44:00,58.6,28.1,-100.00,WSW,247,3.6,3.6,31,0.00,,,0.00,VWS V14.01,2013-03-15 23:44:00,
2013-03-15 16:49:00,58.6,28.9,-100.00,NNW,328,2.7,3.1,32,0.00,,,0.00,VWS V14.01,2013-03-15 23:49:00,
2013-03-15 16:54:00,58.5,28.7,-100.00,North,353,4.0,4.9,32,0.00,,,0.00,VWS V14.01,2013-03-15 23:54:00,
2013-03-15 16:59:00,58.3,29.3,-100.00,NNW,345,2.7,3.6,33,0.00,,,0.00,VWS V14.01,2013-03-15 23:59:00,
2013-03-15 17:04:00,58.1,29.2,-100.00,NW,323,4.9,6.3,33,0.00,,,0.00,VWS V14.01,2013-03-16 00:04:00,
2013-03-15 17:09:00,57.9,29.0,-100.00,North,0,0.0,0.0,33,0.00,,,0.00,VWS V14.01,2013-03-16 00:09:00,
2013-03-15 17:14:00,57.9,29.7,-100.00,NNW,343,2.7,4.0,34,0.00,,,0.00,VWS V14.01,2013-03-16 00:14:00,
2013-03-15 17:19:00,57.9,29.7,-100.00,NNW,346,2.7,3.1,34,0.00,,,0.00,VWS V14.01,2013-03-16 00:19:00,
2013-03-15 17:24:00,57.7,29.6,-100.00,West,263,2.2,3.6,34,0.00,,,0.00,VWS V14.01,2013-03-16 00:24:00,
2013-03-15 17:29:00,57.7,29.6,-100.00,NNW,330,0.0,4.0,34,0.00,,,0.00,VWS V14.01,2013-03-16 00:29:00,
2013-03-15 17:34:00,57.6,29.4,-100.00,NW,320,3.1,3.1,34,0.00,,,0.00,VWS V14.01,2013-03-16 00:34:00,
2013-03-15 17:39:00,57.2,29.8,-100.00,North,0,0.0,2.7,35,0.00,,,0.00,VWS V14.01,2013-03-16 00:39:00,
2013-03-15 17:44:00,57.2,29.8,-100.00,North,0,0.0,0.0,35,0.00,,,0.00,VWS V14.01,2013-03-16 00:44:00,
2013-03-15 17:49:00,57.0,29.7,-100.00,NW,317,0.0,0.0,35,0.00,,,0.00,VWS V14.01,2013-03-16 00:49:00,
2013-03-15 17:54:00,56.8,29.5,-100.00,WNW,301,0.0,0.0,35,0.00,,,0.00,VWS V14.01,2013-03-16 00:54:00,
2013-03-15 17:59:00,56.7,29.3,-100.00,NNW,338,0.0,0.0,35,0.00,,,0.00,VWS V14.01,2013-03-16 00:59:00,
2013-03-15 18:04:00,56.5,29.2,-100.00,WNW,283,0.0,2.2,35,0.00,,,0.00,VWS V14.01,2013-03-16 01:04:00,
2013-03-15 18:09:00,56.3,29.0,-100.00,NW,307,0.0,0.0,35,0.00,,,0.00,VWS V14.01,2013-03-16 01:09:00,
2013-03-15 18:14:00,56.1,28.9,-100.00,NW,321,0.0,0.0,35,0.00,,,0.00,VWS V14.01,2013-03-16 01:14:00,
2013-03-15 18:19:00,55.9,28.7,-100.00,West,280,0.0,0.0,35,0.00,,,0.00,VWS V14.01,2013-03-16 01:19:00,
2013-03-15 18:24:00,55.9,28.7,-100.00,West,280,0.0,0.0,35,0.00,,,0.00,VWS V14.01,2013-03-16 01:24:00,
2013-03-15 18:29:00,55.8,29.2,-100.00,WNW,285,0.0,0.0,36,0.00,,,0.00,VWS V14.01,2013-03-16 01:29:00,
2013-03-15 18:34:00,55.8,28.5,-100.00,NNW,338,0.0,0.0,35,0.00,,,0.00,VWS V14.01,2013-03-16 01:34:00,
2013-03-15 18:39:00,55.8,28.5,-100.00,NW,322,0.0,2.2,35,0.00,,,0.00,VWS V14.01,2013-03-16 01:39:00,
2013-03-15 18:44:00,55.4,28.9,-100.00,NNW,338,2.7,3.1,36,0.00,,,0.00,VWS V14.01,2013-03-16 01:44:00,
2013-03-15 18:49:00,55.0,28.6,-100.00,NW,324,0.0,0.0,36,0.00,,,0.00,VWS V14.01,2013-03-16 01:49:00,
2013-03-15 18:54:00,54.5,28.1,-100.00,NNW,342,0.0,0.0,36,0.00,,,0.00,VWS V14.01,2013-03-16 01:54:00,
2013-03-15 18:59:00,54.0,28.3,-100.00,NNW,342,0.0,0.0,37,0.00,,,0.00,VWS V14.01,2013-03-16 01:59:00,
2013-03-15 19:04:00,53.4,27.8,-100.00,NNW,342,0.0,0.0,37,0.00,,,0.00,VWS V14.01,2013-03-16 02:04:00,
2013-03-15 19:09:00,52.9,28.0,-100.00,NNW,342,0.0,0.0,38,0.00,,,0.00,VWS V14.01,2013-03-16 02:09:00,
2013-03-15 19:14:00,52.2,27.3,-100.00,NNW,342,0.0,0.0,38,0.00,,,0.00,VWS V14.01,2013-03-16 02:14:00,
2013-03-15 19:19:00,51.6,28.1,-100.00,NNW,342,0.0,0.0,40,0.00,,,0.00,VWS V14.01,2013-03-16 02:19:00,
2013-03-15 19:24:00,50.9,28.1,-100.00,NNW,342,0.0,0.0,41,0.00,,,0.00,VWS V14.01,2013-03-16 02:24:00,
2013-03-15 19:29:00,50.4,28.2,-100.00,NNW,342,0.0,0.0,42,0.00,,,0.00,VWS V14.01,2013-03-16 02:29:00,
2013-03-15 19:34:00,49.8,28.8,-100.00,NNW,342,0.0,0.0,44,0.00,,,0.00,VWS V14.01,2013-03-16 02:34:00,
2013-03-15 19:39:00,49.5,29.0,-100.00,NNW,342,0.0,0.0,45,0.00,,,0.00,VWS V14.01,2013-03-16 02:39:00,
2013-03-15 19:44:00,49.5,29.0,-100.00,NNW,342,0.0,0.0,45,0.00,,,0.00,VWS V14.01,2013-03-16 02:44:00,
2013-03-15 19:49:00,49.5,29.6,-100.00,NNW,342,0.0,0.0,46,0.00,,,0.00,VWS V14.01,2013-03-16 02:49:00,
2013-03-15 19:54:00,49.3,29.9,-100.00,WNW,297,0.0,0.0,47,0.00,,,0.00,VWS V14.01,2013-03-16 02:54:00,
2013-03-15 19:59:00,49.6,30.2,-100.00,WSW,254,0.0,0.0,47,0.00,,,0.00,VWS V14.01,2013-03-16 02:59:00,
2013-03-15 20:04:00,49.8,29.9,-100.00,WNW,300,0.0,0.0,46,0.00,,,0.00,VWS V14.01,2013-03-16 03:04:00,
2013-03-15 20:09:00,50.0,30.0,-100.00,NNW,341,0.0,0.0,46,0.00,,,0.00,VWS V14.01,2013-03-16 03:09:00,
2013-03-15 20:14:00,49.8,30.4,-100.00,NNW,341,0.0,0.0,47,0.00,,,0.00,VWS V14.01,2013-03-16 03:14:00,
2013-03-15 20:19:00,49.3,29.9,-100.00,WNW,283,0.0,0.0,47,0.00,,,0.00,VWS V14.01,2013-03-16 03:19:00,
2013-03-15 20:24:00,48.9,30.1,-100.00,WNW,283,0.0,0.0,48,0.00,,,0.00,VWS V14.01,2013-03-16 03:24:00,
2013-03-15 20:29:00,48.6,29.8,-100.00,NNW,334,0.0,0.0,48,0.00,,,0.00,VWS V14.01,2013-03-16 03:29:00,
2013-03-15 20:34:00,48.6,30.3,-100.00,WNW,287,0.0,0.0,49,0.00,,,0.00,VWS V14.01,2013-03-16 03:34:00,
2013-03-15 20:39:00,48.9,30.1,-100.00,WNW,283,0.0,2.2,48,0.00,,,0.00,VWS V14.01,2013-03-16 03:39:00,
2013-03-15 20:44:00,48.9,30.1,-100.00,WNW,292,0.0,0.0,48,0.00,,,0.00,VWS V14.01,2013-03-16 03:44:00,
2013-03-15 20:49:00,48.7,30.5,-100.00,WNW,290,0.0,0.0,49,0.00,,,0.00,VWS V14.01,2013-03-16 03:49:00,
2013-03-15 20:54:00,48.6,30.3,-100.00,WNW,286,0.0,0.0,49,0.00,,,0.00,VWS V14.01,2013-03-16 03:54:00,
2013-03-15 20:59:00,48.6,30.8,-100.00,WNW,285,0.0,0.0,50,0.00,,,0.00,VWS V14.01,2013-03-16 03:59:00,
2013-03-15 21:00:00,48.4,30.6,-100.00,WNW,285,0.0,0.0,50,0.00,,,0.00,VWS V14.01,2013-03-16 04:00:00,
2013-03-15 21:05:00,48.2,30.5,-100.00,WNW,285,0.0,0.0,50,0.00,,,0.00,VWS V14.01,2013-03-16 04:05:00,
2013-03-15 21:10:00,48.0,30.8,-100.00,WNW,284,0.0,0.0,51,0.00,,,0.00,VWS V14.01,2013-03-16 04:10:00,
2013-03-15 21:15:00,47.7,30.4,-100.00,West,265,0.0,0.0,51,0.00,,,0.00,VWS V14.01,2013-03-16 04:15:00,
2013-03-15 21:20:00,47.5,30.3,-100.00,WNW,299,0.0,0.0,51,0.00,,,0.00,VWS V14.01,2013-03-16 04:20:00,
2013-03-15 21:25:00,47.5,30.3,-100.00,NNW,337,0.0,0.0,51,0.00,,,0.00,VWS V14.01,2013-03-16 04:25:00,
2013-03-15 21:30:00,46.9,30.2,-100.00,West,260,0.0,0.0,52,0.00,,,0.00,VWS V14.01,2013-03-16 04:30:00,
2013-03-15 21:35:00,46.6,30.4,-100.00,WNW,285,2.7,2.7,53,0.00,,,0.00,VWS V14.01,2013-03-16 04:35:00,
2013-03-15 21:40:00,46.6,30.4,-100.00,West,277,3.1,3.1,53,0.00,,,0.00,VWS V14.01,2013-03-16 04:40:00,
2013-03-15 21:45:00,47.5,29.3,-100.00,WNW,289,7.2,7.6,49,0.00,,,0.00,VWS V14.01,2013-03-16 04:45:00,
2013-03-15 21:50:00,48.4,29.1,-100.00,NW,305,3.6,4.9,47,0.00,,,0.00,VWS V14.01,2013-03-16 04:50:00,
2013-03-15 21:55:00,48.6,29.3,-100.00,West,268,3.1,4.0,47,0.00,,,0.00,VWS V14.01,2013-03-16 04:55:00,
2013-03-15 22:00:00,48.2,29.5,-100.00,SW,236,3.6,3.6,48,0.00,,,0.00,VWS V14.01,2013-03-16 05:00:00,
2013-03-15 22:05:00,48.2,29.5,-100.00,WSW,247,5.4,5.4,48,0.00,,,0.00,VWS V14.01,2013-03-16 05:05:00,
2013-03-15 22:10:00,48.0,29.8,-100.00,West,267,0.0,0.0,49,0.00,,,0.00,VWS V14.01,2013-03-16 05:10:00,
2013-03-15 22:15:00,47.8,30.1,-100.00,WSW,251,0.0,3.6,50,0.00,,,0.00,VWS V14.01,2013-03-16 05:15:00,
2013-03-15 22:20:00,47.7,30.0,-100.00,WNW,303,2.7,2.7,50,0.00,,,0.00,VWS V14.01,2013-03-16 05:20:00,
2013-03-15 22:25:00,47.5,29.3,-100.00,NW,306,3.1,3.1,49,0.00,,,0.00,VWS V14.01,2013-03-16 05:25:00,
2013-03-15 22:30:00,47.3,29.6,-100.00,WNW,290,0.0,3.1,50,0.00,,,0.00,VWS V14.01,2013-03-16 05:30:00,
2013-03-15 22:35:00,47.3,29.6,-100.00,NW,312,2.2,2.2,50,0.00,,,0.00,VWS V14.01,2013-03-16 05:35:00,
2013-03-15 22:40:00,47.3,29.6,-100.00,WNW,288,2.7,3.1,50,0.00,,,0.00,VWS V14.01,2013-03-16 05:40:00,
2013-03-15 22:45:00,46.9,29.3,-100.00,WSW,237,3.6,3.6,50,0.00,,,0.00,VWS V14.01,2013-03-16 05:45:00,
2013-03-15 22:50:00,46.6,29.4,-100.00,West,269,0.0,3.1,51,0.00,,,0.00,VWS V14.01,2013-03-16 05:50:00,
2013-03-15 22:55:00,46.2,29.6,-100.00,WSW,244,0.0,0.0,52,0.00,,,0.00,VWS V14.01,2013-03-16 05:55:00,
2013-03-15 23:00:00,45.9,29.7,-100.00,SW,216,0.0,0.0,53,0.00,,,0.00,VWS V14.01,2013-03-16 06:00:00,
2013-03-15 23:05:00,45.5,29.8,-100.00,SE,146,0.0,0.0,54,0.00,,,0.00,VWS V14.01,2013-03-16 06:05:00,
2013-03-15 23:10:00,45.0,29.3,-100.00,ESE,122,0.0,0.0,54,0.00,,,0.00,VWS V14.01,2013-03-16 06:10:00,
2013-03-15 23:15:00,44.2,29.1,-100.00,ESE,112,0.0,0.0,55,0.00,,,0.00,VWS V14.01,2013-03-16 06:15:00,
2013-03-15 23:20:00,43.5,28.9,-100.00,ESE,113,0.0,0.0,56,0.00,,,0.00,VWS V14.01,2013-03-16 06:20:00,
2013-03-15 23:25:00,43.0,30.1,-100.00,East,101,0.0,0.0,60,0.00,,,0.00,VWS V14.01,2013-03-16 06:25:00,
2013-03-15 23:30:00,42.8,30.3,-100.00,South,184,0.0,0.0,61,0.00,,,0.00,VWS V14.01,2013-03-16 06:30:00,
2013-03-15 23:35:00,42.4,31.1,-100.00,NNE,21,0.0,0.0,64,0.00,,,0.00,VWS V14.01,2013-03-16 06:35:00,
2013-03-15 23:40:00,42.4,30.8,-100.00,NNE,21,0.0,0.0,63,0.00,,,0.00,VWS V14.01,2013-03-16 06:40:00,
2013-03-15 23:45:00,42.6,32.1,-100.00,WSW,248,0.0,0.0,66,0.00,,,0.00,VWS V14.01,2013-03-16 06:45:00,
2013-03-15 23:50:00,43.2,32.6,-100.00,SSW,207,2.2,3.1,66,0.00,,,0.00,VWS V14.01,2013-03-16 06:50:00,
2013-03-15 23:55:00,43.7,32.3,-100.00,WSW,246,2.7,3.1,64,0.00,,,0.00,VWS V14.01,2013-03-16 06:55:00,